Location: Bishop�s Knoyle
(51.0728°N, 2.1714°W)
Time: 01:03:40
(UTC+00:00)

Nauka - Pass Details

Date: 01 October 2021
Orbit: 417 x 423 km, 51.6° (Epoch: 24 October)

Event Time Altitude Azimuth Distance (km) Brightness Sun altitude
Rises 19:50:12 0° 284° (WNW) 2,367 ? -20.0°
Reaches altitude 10° 19:52:30 10° 272° (W) 1,502 ? -20.3°
Maximum altitude 19:55:22 26° 213° (SSW) 864 ? -20.8°
Enters shadow 19:55:34 26° 207° (SSW) 868 ? -20.8°
